Regional Weather Roundup
Issued by NWS Midland/Odessa, TX

Home | Current Version | Previous Version | Text Only | Print | Product List | Glossary On
Versions: 1 2 3 4 5 6 7 8 9 10 11 12 13 14 15 16 17 18 19 20 21 22 23 24 25 26 27 28 29 30 31 32 33 34 35 36 37 38 39 40 41 42 43 44 45 46 47 48 49 50
000
ASUS44 KMAF 291410
RWRMAF
MIDLAND AREA WEATHER ROUNDUP
NATIONAL WEATHER SERVICE MIDLAND TX
900 AM CDT SAT AUG 29 2015

...IN SOUTHWEST TEXAS AND SOUTHEAST NEW MEXICO...

CITY           SKY/WX    TMP DP  RH WIND       PRES   REMARKS
ALPINE         CLOUDY    69  56  62 CALM      30.25R
ANDREWS        LGT RAIN  68  67  96 S3        30.18R
ARTESIA        MOSUNNY   68  68 100 CALM      30.21R
BIG SPRING     CLOUDY    70  62  75 W6        30.14R
CARLSBAD       MOSUNNY   73  63  70 NW8       30.17R
DRYDEN           N/A     74  61  63 VRB6      30.08R
FORT STOCKTON  CLOUDY    73  52  47 SE10      30.11R
GUAD PASS      SUNNY     67  56  67 NE21      30.27R
HOBBS          PTSUNNY   68  68 100 VRB5      30.20R
MARFA          CLOUDY    68  57  68 N8        30.23R
MIDLAND AIRPK  LGT RAIN  72  65  79 NW8       30.14S
MIDLAND INTL   LGT RAIN  71  65  81 N10       30.13R
ODESSA         CLOUDY    72  62  71 NE12      30.15R
PECOS          CLOUDY    74  62  64 N8        30.13R
PRESIDIO       NOT AVBL
SEMINOLE       CLOUDY    69  64  81 N6        30.18R
SNYDER         CLOUDY    76  61  60 NW8       30.11R
WINK           CLOUDY    72  64  76 N9        30.13R
$$
...OTHER STATIONS IN TEXAS...

CITY           SKY/WX    TMP DP  RH WIND       PRES   REMARKS
ABILENE        MOSUNNY   80  57  45 SW12      30.06R
AMARILLO       PTSUNNY   69  61  75 NW8       30.16R
AUSTIN         MOSUNNY   74  66  76 CALM      30.05R
BROWNSVILLE    SUNNY     81  69  67 NE3       30.00R
CORPUS CHRISTI MOSUNNY   79  66  64 NW3       30.02R
DALLAS FTW     PTSUNNY   80  65  59 S10       30.00S
DEL RIO        SUNNY     74  62  66 E8        30.03S
EL PASO        PTSUNNY   72  60  66 N12       30.16R
HOUSTON INT    MOSUNNY   78  71  79 CALM      30.04R
LUBBOCK        CLOUDY    71  65  81 SW8       30.15R
SAN ANGELO     PTSUNNY   76  60  57 SW3       30.10R
SAN ANTONIO    SUNNY     76  64  66 W6        30.06R
WACO           CLOUDY    78  64  61 S10       30.04S
WICHITA FALLS  NOT AVBL
$$
...OTHER LOCATIONS IN NEW MEXICO...

CITY           SKY/WX    TMP DP  RH WIND       PRES   REMARKS
ALAMAGORDO     MOSUNNY   66  57  72 S3        30.19R
ALBUQUERQUE    MOSUNNY   67  51  56 N9        30.31R
CANNON AFB     PTSUNNY   68  56  65 VRB2      30.19R
CLOVIS         PTSUNNY   66  55  68 N8        30.20R
HOLLOMAN AFB   MOSUNNY   70  55  58 SE3       30.17R
ROSWELL        PTSUNNY   68  62  81 CALM      30.19R
RUIDOSO        MOSUNNY   61  50  67 MISG      30.39R
SANTA FE       SUNNY     61  53  75 NE5       30.37R
TRUTH OR CONSE PTSUNNY   70  58  65 N12       30.22R
TUCUMCARI      SUNNY     69  58  67 SW3       30.20R
$$



USA.gov is the U.S. government's official web portal to all federal, state and local government web resources and services.